This is the latest recevied weather packets stored in our database for station/object KE4AMH. If no packets are shown the sender has not sent any weather packets the latest 10 day(s).
| Time | Temp. | Humidity | Pressure | Rain* | Wind** | Luminosity | Snow |
|---|---|---|---|---|---|---|---|
| 1778160129 | 17.78° C | 99% | 1010.3 hPa | 0.51 mm | - | 61 W/m² | - |
| 1778159826 | 17.78° C | 99% | 1010.6 hPa | 1.78 mm | - | 55 W/m² | - |
| 1778159524 | 17.22° C | 99% | 1010.1 hPa | 2.29 mm | - | 23 W/m² | - |
| 1778159220 | 17.22° C | 99% | 1011 hPa | 3.05 mm | - | 17 W/m² | - |
| 1778158918 | 17.22° C | 99% | 1011.1 hPa | 3.56 mm | - | 20 W/m² | - |
| 1778158617 | 17.22° C | 99% | 1011.3 hPa | 3.05 mm | - | 15 W/m² | - |
| 1778158314 | 17.22° C | 99% | 1011.6 hPa | 1.27 mm | - | 16 W/m² | - |
| 1778158010 | 17.22° C | 99% | 1011.2 hPa | 0.51 mm | - | 4 W/m² | - |
| 1778157708 | 17.22° C | 99% | 1010.8 hPa | 0 mm | - | 9 W/m² | - |
| 1778157406 | 17.22° C | 99% | 1010.8 hPa | 1.27 mm | - | 5 W/m² | - |
| 1778157103 | 17.22° C | 99% | 1010.6 hPa | 3.56 mm | - | 10 W/m² | - |
| 1778156798 | 17.22° C | 99% | 1010.8 hPa | 3.05 mm | - | 28 W/m² | - |
| 1778156494 | 17.22° C | 99% | 1010.6 hPa | 1.78 mm | - | 72 W/m² | - |
| 1778156190 | 17.22° C | 99% | 1010.5 hPa | 1.27 mm | - | 17 W/m² | - |
| 1778155886 | 17.22° C | 99% | 1010.2 hPa | 0.51 mm | - | 15 W/m² | - |
| 1778155582 | 17.22° C | 99% | 1010 hPa | 0.51 mm | - | 22 W/m² | - |
| 1778155279 | 17.22° C | 99% | 1010 hPa | 0.51 mm | - | 24 W/m² | - |
| 1778154976 | 17.22° C | 99% | 1009.7 hPa | 0.51 mm | - | 37 W/m² | - |
| 1778154671 | 17.22° C | 99% | 1009.7 hPa | 1.78 mm | - | 20 W/m² | - |
| 1778154367 | 17.22° C | 99% | 1010.1 hPa | 3.56 mm | - | 18 W/m² | - |
| 1778154065 | 17.22° C | 99% | 1010.2 hPa | 3.05 mm | - | 4 W/m² | - |
| 1778153762 | 17.22° C | 99% | 1010.8 hPa | 4.83 mm | - | 0 W/m² | - |
| 1778153459 | 17.22° C | 99% | 1010.3 hPa | 7.87 mm | - | 0 W/m² | - |
| 1778153157 | 17.22° C | 99% | 1011.3 hPa | 13.21 mm | - | 0 W/m² | - |
| 1778152853 | 17.22° C | 99% | 1011.3 hPa | 26.42 mm | - | 0 W/m² | - |
* Rain latest hour (hover to see other rain measurements)
** Current wind speed in m/s (hover to see current wind gust speed)